TimeEST,TemperatureF,Dew PointF,Humidity,Sea Level PressureIn,VisibilityMPH,Wind Direction,Wind SpeedMPH,Gust SpeedMPH,PrecipitationIn,Events,Conditions,WindDirDegrees,DateUTC
12:58 AM,52.0,47.7,85,30.19,10.0,WNW,5.8,-,N/A,,Clear,290,2013-03-08 05:58:00
1:58 AM,52.0,47.5,85,30.17,10.0,NW,3.5,-,N/A,,Clear,320,2013-03-08 06:58:00
2:58 AM,51.1,47.5,87,30.16,10.0,NW,6.9,-,N/A,,Clear,320,2013-03-08 07:58:00
3:58 AM,51.1,47.7,88,30.15,10.0,NNW,6.9,-,N/A,,Clear,330,2013-03-08 08:58:00
4:58 AM,51.3,48.2,89,30.15,10.0,NNW,6.9,-,N/A,,Clear,340,2013-03-08 09:58:00
5:58 AM,51.4,48.6,90,30.17,10.0,NNW,4.6,-,N/A,,Clear,340,2013-03-08 10:58:00
6:58 AM,51.8,49.3,91,30.18,10.0,NNW,8.1,-,N/A,,Clear,340,2013-03-08 11:58:00
7:58 AM,55.8,51.1,84,30.20,10.0,NNW,6.9,-,N/A,,Clear,340,2013-03-08 12:58:00
8:58 AM,62.4,51.3,67,30.21,10.0,North,8.1,-,N/A,,Clear,350,2013-03-08 13:58:00
9:58 AM,68.5,49.8,51,30.21,10.0,NNW,10.4,-,N/A,,Clear,340,2013-03-08 14:58:00
10:58 AM,71.1,51.4,50,30.21,10.0,NNE,9.2,-,N/A,,Clear,30,2013-03-08 15:58:00
11:58 AM,73.6,54.1,50,30.18,10.0,East,11.5,-,N/A,,Clear,80,2013-03-08 16:58:00
12:58 PM,73.9,52.5,47,30.16,10.0,East,11.5,-,N/A,,Clear,80,2013-03-08 17:58:00
1:58 PM,73.4,52.7,48,30.14,10.0,East,11.5,-,N/A,,Clear,80,2013-03-08 18:58:00
2:58 PM,73.6,52.0,47,30.13,10.0,East,9.2,-,N/A,,Clear,80,2013-03-08 19:58:00
3:58 PM,73.2,51.3,46,30.13,10.0,East,8.1,-,N/A,,Clear,80,2013-03-08 20:58:00
4:58 PM,72.3,52.5,50,30.14,10.0,East,8.1,-,N/A,,Clear,90,2013-03-08 21:58:00
5:58 PM,69.8,53.6,56,30.15,10.0,East,5.8,-,N/A,,Clear,80,2013-03-08 22:58:00
6:58 PM,65.3,55.2,70,30.16,10.0,ENE,4.6,-,N/A,,Clear,70,2013-03-08 23:58:00
7:58 PM,63.7,55.0,73,30.17,10.0,NE,4.6,-,N/A,,Clear,40,2013-03-09 00:58:00
8:58 PM,61.9,55.6,80,30.18,10.0,NNE,2.3,-,N/A,,Clear,30,2013-03-09 01:58:00
9:58 PM,59.4,53.1,80,30.19,10.0,WNW,2.3,-,N/A,,Clear,300,2013-03-09 02:58:00
10:58 PM,59.9,52.3,76,30.19,10.0,WNW,3.5,-,N/A,,Clear,300,2013-03-09 03:58:00
11:58 PM,57.2,52.5,84,30.18,10.0,WNW,2.3,-,N/A,,Clear,300,2013-03-09 04:58:00